Presure
117 119 145 139 137 165 214 158 164 165 165 160 138 146 152 138 151 178 172 197 266 241 241 193 202 211 192 189 185 183 189 176 211 185 193 151 172 192 194 171 189 194 161 154
125 184 156 172 249 152 154 190 185 176 174 171 151 144 149 148 145 163 203 202 218 246 237 236 205 172 181 197 178 168 175 179 181 174 192 186 124 180 161 201 181 155 169 154
162 161 158 173 158 158 147 155 168 194 178 174 169 147 145 182 151 176 165 196 206 200 238 254 242 215 204 186 186 168 177 188 187 182 184 152 173 185 187 193 176 210 184 168
165 168 158 157 159 153 150 151 162 211 193 171 165 145 152 151 167 187 144 175 199 193 195 200 238 221 244 240 207 201 192 193 197 190 124 189 208 207 193 147 171 177 185 177
192 220 165 151 157 150 151 158 200 200 173 166 182 144 132 145 152 177 165 148 179 160 202 196 193 220 217 267 237 247 232 206 190 193 134 125 208 217 187 185 194 220 189 153
186 223 154 158 156 158 160 162 186 177 170 164 170 157 162 152 169 159 172 160 161 180 205 197 194 197 217 219 233 228 211 241 245 129 132 191 217 207 125 198 216 242 137 159
215 161 183 173 166 265 164 167 179 182 163 167 168 166 148 150 151 155 178 164 160 198 199 202 200 206 200 213 221 243 188 235 263 268 209 172 197 136 151 138 137 136 125 134
264 265 221 197 150 261 198 169 162 155 163 168 174 159 148 150 159 144 143 183 169 167 153 189 180 204 216 222 230 206 237 192 250 270 149 133 138 221 214 207 134 133 124 117
262 251 238 277 245 185 237 176 219 156 161 168 190 178 160 162 168 147 171 163 178 162 161 186 190 194 185 200 206 234 220 243 190 198 215 130 129 123 151 156 177 133 125 121
244 252 240 225 239 179 222 171 186 226 164 161 176 232 159 168 151 146 138 188 179 187 174 164 158 182 202 199 198 208 220 204 239 209 151 156 126 123 118 111 122 127 130 133
229 251 231 235 182 204 178 172 183 214 213 164 214 234 208 166 162 160 137 153 155 177 151 165 177 156 180 195 195 200 210 224 212 196 213 138 154 179 128 126 137 132 136 132
230 118 242 228 188 146 144 256 252 232 227 177 166 172 266 165 175 144 169 175 201 161 164 208 167 185 145 190 179 205 209 225 224 229 200 138 144 132 140 178 151 136 138 149
242 234 240 228 225 212 264 259 247 254 234 222 222 155 257 177 175 170 163 178 215 207 145 171 169 182 157 148 189 205 182 199 211 218 222 233 143 222 197 156 143 174 140 138
253 248 241 232 226 215 205 233 232 225 190 226 239 213 164 162 171 189 174 191 174 175 203 168 180 152 231 162 156 179 187 183 204 199 184 169 131 194 196 188 153 216 154 154
257 246 241 237 234 228 163 183 220 124 216 235 244 249 237 220 179 189 185 173 200 194 192 192 141 135 180 214 152 152 165 170 177 144 183 184 185 187 185 144 182 162 178 131
259 247 242 234 235 234 226 217 231 235 241 242 236 238 248 160 140 190 190 199 195 200 159 191 208 141 172 181 196 162 158 154 166 162 163 172 184 181 125 162 127 127 209 195
257 253 254 246 242 235 231 223 163 213 171 154 241 232 174 240 191 161 130 156 143 187 197 198 156 158 199 188 184 185 189 177 162 150 163 159 165 167 128 209 194 150 196 175
264 269 271 256 268 258 245 235 229 217 209 216 231 239 176 231 233 240 254 225 191 149 136 179 192 182 154 187 191 185 174 158 149 126 159 171 159 143 164 158 151 150 150 161
257 276 278 277 278 282 283 282 264 244 239 229 222 209 209 222 235 231 230 213 249 152 211 142 131 197 191 153 167 196 198 156 169 144 163 161 196 157 173 137 173 184 153 128
234 230 230 216 224 230 253 268 279 283 280 286 294 291 286 271 271 230 219 263 226 224 249 226 202 165 197 203 197 170 196 171 144 148 135 134 129 141 140 178 145 129 192 159
201 246 252 254 249 251 248 229 237 238 248 250 254 257 251 250 253 257 263 266 258 257 262 260 246 273 214 210 198 229 200 181 127 134 134 133 155 131 149 160 131 156 133 166
198 210 213 217 223 215 214 212 225 223 227 230 231 231 228 230 231 232 233 235 236 236 237 240 201 184 134 132 130 130 196 291 287 285 135 150 176 154 153 171 127 146 138 142
185 185 185 187 189 193 229 227 227 226 227 226 227 225 224 224 223 223 223 223 222 220 212 206 202 202 206 208 210 218 219 282 288 287 285 285 276 298 293 289 123 182 133 173
175 175 177 178 180 176 179 180 184 186 188 189 184 184 181 203 193 196 237 239 235 239 231 227 171 242 244 254 289 287 229 235 212 230 240 264 274 265 270 267 125 315 322 249
170 173 174 175 174 176 178 177 177 178 177 182 176 174 175 188 186 186 174 178 200 240 228 223 231 232 236 240 243 305 297 290 267 252 243 260 240 228 260 283 272 282 182 258
169 166 166 168 172 172 169 170 170 170 171 171 170 172 172 171 173 172 173 173 173 176 202 224 218 221 237 236 240 256 272 315 274 246 225 214 219 212 204 225 220 262 255 293
Wind_Speed
3 2 16 11 10 18 25 13 10 7 6 8 9 11 15 15 20 20 20 10 15 18 20 24 20 21 24 24 25 22 20 19 16 20 18 20 17 14 19 11 16 11 20 19
14 22 19 11 29 12 12 17 15 11 7 7 7 8 13 11 17 18 9 7 23 15 17 18 16 18 24 27 20 13 18 20 21 17 15 23 21 19 15 20 12 19 16 18
27 26 25 22 18 13 11 11 10 15 7 6 4 5 10 2 9 9 14 5 16 16 21 14 15 13 19 25 26 18 17 18 20 18 18 17 15 19 19 18 11 16 18 15
29 27 24 19 18 14 12 10 12 18 14 7 7 5 6 9 10 3 11 7 0 4 12 17 16 8 13 17 12 13 14 14 15 14 23 16 22 23 16 20 11 13 12 9
28 24 26 14 24 18 12 16 21 19 8 12 11 7 7 8 7 6 5 8 4 7 13 13 13 17 5 15 8 18 15 14 15 14 24 20 20 21 13 15 15 16 16 29
28 28 23 20 27 27 21 20 20 15 11 13 13 12 8 7 5 7 4 4 6 2 18 12 12 12 11 7 8 9 8 16 21 21 23 18 20 18 14 17 16 13 15 19
29 22 29 29 30 31 25 23 22 17 10 15 14 12 7 9 11 5 9 4 6 6 10 14 13 12 10 5 5 9 10 7 13 15 15 12 9 20 23 10 14 12 10 12
27 25 31 28 17 28 28 25 20 13 12 15 16 10 11 11 12 2 3 11 8 6 6 10 7 16 13 13 10 5 3 10 5 9 21 17 20 15 15 14 12 12 9 8
27 26 31 25 28 29 31 26 36 19 17 18 25 16 12 12 11 4 12 12 13 9 2 4 7 11 11 11 10 12 7 4 9 9 9 13 10 8 10 17 14 14 4 3
24 28 28 31 27 30 32 25 29 38 23 19 22 37 14 13 14 10 3 17 17 19 13 5 5 4 11 10 9 8 8 5 8 6 14 17 13 9 4 3 5 11 12 12
28 27 28 28 27 30 33 28 32 36 40 22 43 35 26 15 14 15 11 14 9 23 10 7 7 3 7 6 7 3 9 7 2 7 5 18 15 12 13 10 18 13 16 14
29 13 25 30 28 22 12 27 33 34 36 34 16 15 37 16 18 16 13 18 15 15 13 14 10 10 8 11 9 4 7 6 6 6 7 18 19 14 17 18 21 15 17 19
26 22 25 30 32 38 18 25 29 32 37 42 41 8 27 21 19 16 16 17 21 17 12 16 15 6 10 9 14 5 13 5 1 4 5 3 18 4 17 23 18 21 17 20
27 27 26 28 31 35 34 25 26 32 27 40 37 27 21 16 19 25 15 19 21 18 18 19 14 12 21 16 16 22 16 15 11 11 15 14 11 17 20 11 23 12 23 25
21 20 22 23 24 26 38 32 29 14 37 32 33 29 30 27 27 29 24 17 23 24 18 19 20 18 14 18 20 20 21 23 19 14 16 16 19 20 21 11 25 15 26 20
16 19 22 23 23 23 24 27 21 22 25 29 32 32 28 18 18 32 30 33 24 28 21 21 25 23 17 18 24 30 27 24 28 25 26 24 24 23 17 20 25 20 29 32
20 19 21 21 21 19 22 25 20 35 25 20 30 34 21 32 26 20 17 24 24 27 32 28 27 26 26 22 17 25 25 28 33 24 31 30 28 26 26 25 30 31 28 31
11 14 17 15 16 17 24 27 28 34 39 37 34 33 20 35 35 35 37 42 43 30 29 28 40 26 32 28 31 33 38 39 29 15 36 37 33 26 34 30 28 31 26 33
6 8 11 11 13 15 16 21 22 25 28 30 36 39 37 36 36 37 37 34 40 31 51 34 25 33 36 35 38 40 40 39 48 21 40 37 46 30 42 34 37 42 36 32
5 4 4 7 6 4 5 6 8 10 10 11 12 8 6 11 13 31 36 19 37 40 39 49 43 41 40 46 44 49 45 37 24 27 19 21 31 22 32 45 29 36 47 43
10 6 6 6 8 9 6 4 5 6 7 7 6 4 3 5 5 5 7 10 17 19 19 25 38 34 59 61 52 66 58 56 21 25 23 21 40 24 32 39 35 37 40 38
10 9 9 8 8 8 6 5 6 5 4 4 2 1 2 3 4 7 10 11 14 16 19 21 25 27 28 27 27 28 33 37 41 43 31 45 65 48 46 58 37 40 42 42
6 8 8 8 8 7 5 5 5 5 4 4 3 1 1 4 8 10 13 14 16 18 22 23 25 26 28 30 30 32 33 27 30 33 34 34 36 35 35 40 39 68 34 61
8 6 5 4 4 6 5 4 3 3 5 6 5 5 5 5 9 7 10 11 12 14 15 19 18 21 23 24 21 22 35 35 36 35 31 28 24 26 28 31 38 34 40 44
14 11 9 9 8 7 5 5 5 4 3 1 4 6 4 4 4 7 10 11 14 14 14 16 17 19 22 23 21 17 20 22 21 23 20 19 15 19 22 18 19 23 24 39
18 17 14 13 12 11 11 10 11 11 10 11 12 12 11 9 11 13 14 15 15 17 18 17 17 16 16 17 17 15 16 16 16 20 21 21 18 20 26 25 30 24 25 34
Wind_Direction
130 260 283 291 302 253 254 292 262 290 283 262 313 339 345 31 15 9 23 29 126 103 131 149 133 138 155 164 165 156 158 176 196 175 194 157 203 236 246 210 234 209 143 140
271 254 275 240 209 298 300 267 262 275 268 264 282 336 335 6 25 17 18 58 73 113 111 134 140 156 167 168 180 169 183 189 185 196 194 206 143 217 174 235 218 158 172 140
264 266 278 271 283 286 280 297 251 259 265 264 261 328 326 166 4 28 24 356 108 91 76 129 134 154 169 176 184 173 182 192 199 203 203 167 211 227 220 229 187 233 184 151
256 256 269 277 282 273 272 286 287 243 254 252 248 269 269 312 295 51 37 51 124 110 125 98 64 116 170 181 180 193 191 197 209 202 153 223 234 230 231 161 167 166 202 201
244 235 254 266 274 264 270 277 240 242 224 237 227 198 315 311 10 292 323 20 73 92 122 125 126 57 125 192 185 208 215 221 211 228 159 149 226 230 231 211 240 228 223 155
243 230 253 252 256 266 269 268 245 245 214 236 229 225 203 274 227 298 234 19 348 92 125 145 143 127 66 137 153 164 174 227 232 167 165 198 224 233 125 246 231 223 134 165
231 224 237 238 243 216 261 259 249 242 226 231 232 225 203 248 274 288 193 269 346 175 178 141 141 105 130 98 132 147 143 192 220 223 219 184 240 157 162 138 152 152 128 135
220 219 223 232 210 214 235 254 249 232 238 240 236 206 198 217 240 264 287 197 252 286 65 203 246 113 74 55 39 125 124 146 91 193 178 181 166 215 213 193 152 156 154 119
223 216 218 196 208 231 218 244 221 236 231 243 243 236 213 208 210 230 229 244 215 255 132 235 173 143 160 105 76 36 45 21 154 166 177 184 181 169 181 173 207 187 198 53
215 216 218 216 211 232 218 236 234 220 239 228 242 240 221 228 226 260 309 203 227 197 208 207 156 237 130 130 124 49 45 144 3 193 192 193 201 212 232 61 212 205 225 226
211 213 215 212 224 224 233 232 235 217 224 235 243 237 230 226 221 193 255 257 239 223 241 236 209 172 289 149 138 100 20 5 185 183 216 203 207 210 231 249 209 224 219 235
210 252 210 208 222 254 241 211 218 213 219 248 244 234 234 231 236 223 227 238 236 242 240 252 233 279 184 273 222 50 14 334 356 0 212 212 212 224 232 218 217 248 224 217
204 203 205 209 208 212 216 206 214 215 222 230 233 208 243 243 241 220 220 233 240 250 244 251 243 282 237 219 258 289 213 187 156 91 76 290 230 204 228 233 243 238 257 261
202 202 204 210 214 215 219 217 224 231 231 238 234 244 248 248 255 254 233 247 242 255 247 249 225 220 247 245 242 255 242 221 177 187 222 230 266 227 232 235 246 246 241 246
210 210 212 216 223 221 235 233 225 253 244 240 243 238 228 250 250 253 255 242 261 257 233 247 250 232 262 257 248 253 254 250 236 227 231 237 242 240 248 236 251 259 247 242
206 206 211 216 221 224 220 221 225 233 238 241 247 246 232 231 206 258 261 261 270 266 234 247 264 259 230 258 248 253 252 249 252 247 243 237 243 242 226 249 235 262 239 252
208 211 213 219 226 231 234 225 234 229 248 239 240 248 253 241 248 250 246 234 252 266 264 261 245 247 251 246 242 227 236 237 252 247 250 257 248 242 260 260 243 255 246 259
220 224 228 227 243 232 231 231 232 238 242 245 244 244 242 252 250 242 243 251 240 235 258 258 257 245 256 252 248 247 237 249 251 233 253 251 258 241 250 251 259 254 261 258
142 195 215 219 229 240 238 240 241 242 245 246 247 254 257 258 259 260 258 260 257 264 257 251 280 259 257 249 232 250 243 252 247 272 256 253 254 264 253 258 249 250 256 273
122 120 112 151 168 193 178 166 183 203 215 224 229 238 226 242 256 269 271 271 266 267 270 261 271 241 264 271 255 237 256 253 269 272 254 248 240 264 266 263 244 271 252 260
109 131 148 148 156 168 178 149 142 159 169 177 195 206 242 269 279 267 263 270 272 276 272 270 272 269 265 271 263 274 265 267 270 261 273 258 279 240 279 280 241 274 271 261
114 103 105 102 110 131 139 146 138 149 132 118 112 169 258 276 277 274 274 266 266 271 278 282 272 266 269 272 274 275 273 273 276 279 283 279 261 277 274 266 252 264 269 250
152 144 148 149 144 135 95 111 126 130 141 151 166 192 304 285 278 277 279 280 279 279 281 279 276 276 277 276 277 281 281 285 282 284 286 289 288 293 286 282 261 266 278 268
219 218 218 206 196 203 207 192 152 113 91 79 78 60 58 42 38 15 333 322 312 308 293 290 282 292 289 291 287 287 281 283 284 286 295 304 309 309 300 292 265 297 284 273
233 233 220 230 236 251 257 264 272 269 269 10 275 273 289 8 340 313 294 305 323 303 290 290 293 295 297 295 296 317 301 284 290 288 294 298 307 311 319 330 322 331 292 288
229 239 248 258 262 259 267 273 278 281 282 286 290 295 292 292 304 308 308 306 311 316 309 295 298 304 314 315 313 323 337 306 290 285 286 285 282 282 287 315 298 333 331 323